"TOA5","AWS1","CR1000","7964","CR1000.Std.14","CPU:AWS1_114.CR1","64363","TBL110"
"TIMESTAMP","RECORD","Wind_spd_WVc(1)","Wind_spd_WVc(2)","Air_Temp_Avg","Humidity_Avg","SW_upper_Wm2_Avg","Rain_Tot","Press_Avg","Issui_Tot","Depth_cm","SR50A_Raw","Quality","Ground_Temp_Avg(1)","Ground_Temp_Avg(2)","SW_lower_Wm2_Avg","Albedo_Avg","SWC_per(1)","SWC_per(2)","Period(1)","Period(2)"
"TS","RN","","","","","","","","","","","","","","","","","","",""
"","","WVc","WVc","Avg","Avg","Avg","Tot","Avg","Tot","Smp","Smp","Smp","Avg","Avg","Avg","Avg","Smp","Smp","Smp","Smp"
"2017-10-28 00:00:00",311965,0.027,192.5,6.327,80.3,0,0,872.4981,0,2.166,3.126,259,9.26,10.59,0.8379015,0,50.99,58.09,33.54,35.24
"2017-10-28 00:10:00",311966,0.295,191.7,5.419,82.6,0,0,872.5405,0,3.077,3.116,257,9.21,10.6,0.3803944,0,51.05,58.09,33.56,35.24
"2017-10-28 00:20:00",311967,0.382,185.5,5.681,81.8,0,0,872.555,0,3.626,3.113,300,9.21,10.59,0.5497634,0,51.05,58.09,33.56,35.24
"2017-10-28 00:30:00",311968,0.45,190,5.701,83.1,0,0,872.555,0,3.029,3.116,276,9.21,10.59,0.4549759,0,50.99,58.09,33.54,35.24
"2017-10-28 00:40:00",311969,0.132,157.2,6.334,83.1,0,0,872.555,0,2.741,3.116,254,9.21,10.58,0.8720269,0,50.99,58.09,33.54,35.24
"2017-10-28 00:50:00",311970,0.532,108.6,6.738,79.37,0,0,872.3359,0,2.534,3.12,250,9.21,10.56,0.9857499,0,50.99,58.09,33.54,35.24
"2017-10-28 01:00:00",311971,0.331,181.9,6.181,81.2,0,0,872.3697,0,3.052,3.114,235,9.22,10.55,0.05686622,0,50.99,58.09,33.54,35.24
"2017-10-28 01:10:00",311972,0.219,175.8,6.06,82.2,0,0,872.4897,0,3.07,3.117,226,9.23,10.54,0.06823812,0,50.99,58.09,33.54,35.24
"2017-10-28 01:20:00",311973,0.133,189.4,5.9,83.8,0,0,872.5593,0,2.85,3.118,226,9.18,10.55,0,0,50.94,58.09,33.53,35.24
"2017-10-28 01:30:00",311974,0.17,189.2,5.948,82.7,0,0,872.7278,0,3.151,3.116,233,9.14,10.55,0.0265362,0,50.99,58.09,33.54,35.24
"2017-10-28 01:40:00",311975,0.17,187.6,5.798,83.9,0,0,872.5887,0,2.995,3.119,229,9.08,10.55,0.03790855,0,50.99,58.09,33.54,35.24
"2017-10-28 01:50:00",311976,0.299,187.4,5.553,85.8,0,0,872.555,0,2.895,3.12,227,9.08,10.55,0.01516337,0,50.94,58.09,33.53,35.24
"2017-10-28 02:00:00",311977,0.134,187.4,5.879,86.2,0,0,872.6351,0,2.797,3.12,239,9.08,10.54,0.5079725,0,50.99,58.09,33.54,35.24
"2017-10-28 02:10:00",311978,0.434,185.6,5.613,86.5,0.003931629,0,872.3148,0,3.11,3.114,241,9.09,10.55,0.3108488,0.096,50.99,58.09,33.54,35.24
"2017-10-28 02:20:00",311979,0.499,207.9,7.024,83.2,0.6801718,0,872.3085,0,2.447,3.115,237,9.08,10.55,1.565616,1.969,50.94,58.09,33.53,35.24
"2017-10-28 02:30:00",311980,0,0,7.099,82.7,0,0,872.5761,0,2.161,3.12,242,9.08,10.55,0.2312412,0,50.99,58.03,33.54,35.22
"2017-10-28 02:40:00",311981,0.158,191.7,6.259,83.1,0,0,872.6436,0,2.454,3.12,232,9.11,10.55,0,0,50.99,58.03,33.54,35.22
"2017-10-28 02:50:00",311982,0.284,180.3,6.223,83.9,0,0,872.5255,0,2.705,3.118,245,9.15,10.55,0,0,50.99,58.03,33.54,35.22
"2017-10-28 03:00:00",311983,0.415,185.2,6.207,82.6,0,0,872.6204,0,3.061,3.114,243,9.16,10.55,0.007581678,0,50.99,58.03,33.54,35.22
"2017-10-28 03:10:00",311984,0.324,224.1,6.216,85,0,0,872.2727,0,2.7,3.113,238,9.11,10.54,0.2274503,0,50.99,58.03,33.54,35.22
"2017-10-28 03:20:00",311985,0.132,174.3,7.255,81.2,0.2005131,0,872.4981,0,2.664,3.116,245,9.09,10.53,0.8491479,1.414,50.94,58.03,33.53,35.22
"2017-10-28 03:30:00",311986,0.414,182.6,6.335,82.7,0,0,872.6877,0,3.065,3.113,232,9.02,10.5,0,0,50.99,58.03,33.54,35.22
"2017-10-28 03:40:00",311987,0.117,141.7,6.604,80.2,0,0,872.8205,0,2.859,3.116,220,8.99,10.45,0.2236595,0,50.94,58.03,33.53,35.22
"2017-10-28 03:50:00",311988,0.25,322.8,7.181,79.09,0.275214,0,872.9343,0,2.695,3.108,229,8.99,10.45,0.7960761,1.205,50.99,58.03,33.54,35.22
"2017-10-28 04:00:00",311989,0.5,154.2,6.882,81,0.05111118,0,872.3085,0,3.534,3.105,229,8.99,10.42,0.1895419,0.313,50.94,58.03,33.53,35.22
"2017-10-28 04:10:00",311990,0.273,318.2,8.02,67.57,0.5307699,0,873.0692,0,4.077,3.092,313,8.99,10.42,1.228232,2.021,50.99,58.03,33.54,35.22
"2017-10-28 04:20:00",311991,0.247,151.3,7.732,72.81,0,0,873.0228,0,1.889,3.121,233,8.99,10.41,0.257777,0,50.99,58.03,33.54,35.22
"2017-10-28 04:30:00",311992,0.163,170.8,7.235,75.03,0,0,872.6282,0,2.379,3.114,236,8.99,10.39,0,0,50.94,58.03,33.53,35.22
"2017-10-28 04:40:00",311993,0.11,219.1,8.04,69.93,0.05897444,0,873.121,0,1.847,3.113,226,8.99,10.38,0.7316319,0.787,50.94,58.03,33.53,35.22
"2017-10-28 04:50:00",311994,0.344,156.2,8.29,70.23,0,0,873.3253,0,2.556,3.112,242,8.99,10.38,0.4435281,0,50.94,58.03,33.53,35.22
"2017-10-28 05:00:00",311995,0.435,153.4,7.87,71.19,0,0,872.9603,0,1.778,3.118,208,8.99,10.38,0.09477096,0,50.94,58.03,33.53,35.22
"2017-10-28 05:10:00",311996,0.434,159.9,8.36,65.28,0,0,872.3946,0,2.055,3.11,223,8.99,10.38,0.5534624,0,50.94,58.03,33.53,35.22
"2017-10-28 05:20:00",311997,0.277,317.2,8.99,59.9,0.007863259,0,872.8444,0,3.037,3.097,232,9,10.38,0.5989525,0.129,50.94,58.03,33.53,35.22
"2017-10-28 05:30:00",311998,0.062,164.9,8.91,63.03,0,0,872.9421,0,3.003,3.104,235,9.01,10.38,0.1857511,0,50.94,58.03,33.53,35.22
"2017-10-28 05:40:00",311999,0.175,181.7,8.42,64.67,0,0,873.0561,0,3.912,3.091,258,9.02,10.38,0.05686258,0,50.94,58.03,33.53,35.22
"2017-10-28 05:50:00",312000,0.117,99.5,9.17,59.26,0,0,873.2831,0,3.734,3.093,238,9.02,10.38,0.3904564,0,50.94,58.03,33.53,35.22
"2017-10-28 06:00:00",312001,0.188,167.3,8.2,68.13,0,0,873.5568,0,3.126,3.104,235,9.02,10.38,0,0,50.99,58.03,33.54,35.22
"2017-10-28 06:10:00",312002,0.309,179,7.74,69.25,0,0,873.6432,0,2.968,3.107,218,9.03,10.38,0,0,50.94,58.03,33.53,35.22
"2017-10-28 06:20:00",312003,0.329,176.1,7.622,68.51,0.5661476,0,873.3273,0,3.5,3.102,228,9.04,10.37,0.01137238,0.005,50.99,58.03,33.54,35.22
"2017-10-28 06:30:00",312004,0.062,188.7,8.55,56.03,4.827996,0,873.4115,0,4.046,3.089,232,9.02,10.37,1.539066,0.315,50.94,58.03,33.53,35.22
"2017-10-28 06:40:00",312005,0.075,187.4,8.8,55.33,6.019186,0,873.5189,0,3.143,3.101,224,9.02,10.37,1.25474,0.216,50.94,58.03,33.53,35.22
"2017-10-28 06:50:00",312006,0.231,182.2,8.06,62.35,11.58627,0,873.639,0,3.529,3.101,235,9.03,10.37,1.523885,0.133,50.88,58.03,33.52,35.22
"2017-10-28 07:00:00",312007,0.504,181.2,7.71,64.2,12.52604,0,873.2872,0,3.653,3.1,239,9.03,10.38,1.580764,0.126,50.94,57.97,33.53,35.21
"2017-10-28 07:10:00",312008,0.314,180,7.859,62.04,28.6772,0,873.0809,0,3.604,3.1,229,9.04,10.38,4.150953,0.145,50.88,58.03,33.52,35.22
"2017-10-28 07:20:00",312009,0.158,203.8,8.53,51.75,23.99446,0,873.2177,0,4.325,3.082,236,9.05,10.38,3.999288,0.168,50.94,57.97,33.53,35.21
"2017-10-28 07:30:00",312010,0.096,293.1,9.96,43.69,37.76584,0,873.4094,0,3.77,3.092,251,9.06,10.37,6.273615,0.163,50.94,58.03,33.53,35.22
"2017-10-28 07:40:00",312011,0.048,189,8.86,54.75,18.01342,0,873.6832,0,4.232,3.088,276,9.06,10.36,1.713332,0.095,50.94,57.97,33.53,35.21
"2017-10-28 07:50:00",312012,0.115,166.7,8.65,58.23,21.26724,0,873.7296,0,2.903,3.105,304,9.04,10.34,2.111216,0.1,50.88,58.03,33.52,35.22
"2017-10-28 08:00:00",312013,0.052,195.5,8.57,56.72,32.17779,0,873.8138,0,-34.99,3.474,208,9.02,10.33,3.945457,0.12,50.88,58.03,33.52,35.22
"2017-10-28 08:10:00",312014,0.061,254.4,8.91,55.4,44.17603,0,873.9781,0,4.72,3.083,336,9.01,10.32,5.627925,0.127,50.94,58.03,33.53,35.22
"2017-10-28 08:20:00",312015,0.24,223.7,8.97,56.29,51.31148,0,874.0856,0,3.221,3.099,237,8.99,10.3,6.658435,0.13,50.88,57.97,33.52,35.21
"2017-10-28 08:30:00",312016,0.29,145.3,8.25,69.99,64.33618,0,873.9781,0,3.671,3.096,233,8.99,10.29,8.007471,0.124,50.88,57.97,33.52,35.21
"2017-10-28 08:40:00",312017,0.297,339.3,8.85,59.42,63.55755,0,874.2899,0,4.152,3.087,242,8.97,10.29,8.238585,0.129,50.94,57.97,33.53,35.21
"2017-10-28 08:50:00",312018,0.363,147.8,8.86,62.17,52.99235,0,874.4415,0,4.747,3.084,266,8.94,10.29,6.339942,0.119,50.94,57.97,33.53,35.21
"2017-10-28 09:00:00",312019,0.522,158.8,9.09,55.03,54.62714,0,874.2351,0,5.613,3.067,248,8.94,10.29,7.283514,0.132,50.94,57.97,33.53,35.21
"2017-10-28 09:10:00",312020,0.499,307.1,10.03,50.56,64.32702,0,874.3762,0,6.69,3.059,428,8.95,10.28,8.75006,0.135,50.88,58.03,33.52,35.22
"2017-10-28 09:20:00",312021,0.448,301.9,9.55,53.37,55.54281,0,874.2245,0,6.731,3.06,350,9,10.28,6.813601,0.122,50.94,58.03,33.53,35.22
"2017-10-28 09:30:00",312022,0.552,144.5,9.15,62.36,95.22299,0,873.7253,0,7.227,3.057,367,9.04,10.28,12.71013,0.133,50.88,57.97,33.52,35.21
"2017-10-28 09:40:00",312023,0.507,153.8,9.46,56.94,75.71304,0,873.4727,0,6.659,3.06,339,9.03,10.28,9.947555,0.131,50.88,57.97,33.52,35.21
"2017-10-28 09:50:00",312024,0.557,163.6,9.63,57.48,87.38992,0,873.2535,0,4.499,3.081,267,9.03,10.28,11.62253,0.133,50.94,58.03,33.53,35.22
"2017-10-28 10:00:00",312025,0.617,291.3,9.89,55.67,83.60899,0,873.1503,0,1.451,3.11,211,9.03,10.28,11.17158,0.134,50.94,57.97,33.53,35.21
"2017-10-28 10:10:00",312026,0.612,307.5,9.81,56.29,93.16745,0,873.043,0,3.816,3.087,268,9.03,10.27,12.41455,0.133,50.88,57.97,33.52,35.21
"2017-10-28 10:20:00",312027,0.545,288.1,9.66,60.27,114.4539,0,873.3568,0,5.403,3.074,329,9,10.27,15.71145,0.137,50.88,57.97,33.52,35.21
"2017-10-28 10:30:00",312028,0.135,12.73,9.23,65.1,110.1188,0,873.5358,0,5.427,3.074,336,9.01,10.27,14.50259,0.132,50.88,57.97,33.52,35.21
"2017-10-28 10:40:00",312029,0.376,130.6,9.34,65.16,132.5843,0,873.2598,0,3.733,3.089,249,9.1,10.27,17.97381,0.135,50.88,58.03,33.52,35.22
"2017-10-28 10:50:00",312030,0.2,114.5,9.83,60.94,77.16725,0,873.382,0,3.947,3.085,230,9.16,10.27,9.921027,0.128,50.94,57.97,33.53,35.21
"2017-10-28 11:00:00",312031,1.053,104,10.31,54.78,92.21632,0,873.1714,0,4.307,3.077,244,9.13,10.26,12.59266,0.136,50.88,57.97,33.52,35.21
"2017-10-28 11:10:00",312032,0.807,126.9,10.67,57.33,116.5723,0,872.6154,0,3.378,3.088,241,9.11,10.26,17.64412,0.151,50.83,57.97,33.5,35.21
"2017-10-28 11:20:00",312033,0.507,146.6,10.46,63.68,174.6541,0,872.251,0,4.127,3.079,233,9.13,10.26,26.6405,0.152,50.88,57.97,33.52,35.21
"2017-10-28 11:30:00",312034,0.373,177,11.24,59.19,222.5211,0,872.0424,0,4.886,3.065,242,9.16,10.28,33.83305,0.152,50.88,57.97,33.52,35.21
"2017-10-28 11:40:00",312035,0.412,327.8,12.24,56.72,210.4001,0,872.2047,0,-0.931,3.121,242,9.18,10.25,30.9909,0.146,50.88,57.97,33.52,35.21
"2017-10-28 11:50:00",312036,0.325,281.8,11.27,66.09,113.2355,0,872.6617,0,-28.19,3.395,217,9.16,10.24,13.87731,0.122,50.88,57.91,33.52,35.2
"2017-10-28 12:00:00",312037,0.562,332.2,10.54,69.74,116.9496,0,872.4617,0,5.643,3.066,276,9.18,10.27,14.27142,0.121,50.88,57.91,33.52,35.2
"2017-10-28 12:10:00",312038,0.54,317.7,10.09,72.19,50.48846,0,872.5079,0,5.493,3.071,313,9.23,10.28,4.57398,0.088,50.88,57.91,33.52,35.2
"2017-10-28 12:20:00",312039,0.554,304.5,9.23,76.92,44.16463,0,872.8492,0,4.83,3.082,278,9.25,10.22,4.024496,0.09,50.88,57.97,33.52,35.21
"2017-10-28 12:30:00",312040,0.441,329.3,8.51,81.6,43.48862,0,872.9671,0,4.91,3.085,284,9.25,10.19,4.411029,0.101,50.88,57.91,33.52,35.2
"2017-10-28 12:40:00",312041,0.241,246.1,8.43,83.7,48.20497,0,872.9671,0,6.092,3.071,403,9.31,10.16,5.699475,0.118,50.88,57.91,33.52,35.2
"2017-10-28 12:50:00",312042,0.456,240.9,8.35,84.1,56.942,0,872.826,0,4.021,3.094,256,9.29,10.16,7.328979,0.128,50.83,57.91,33.5,35.2
"2017-10-28 13:00:00",312043,0.748,27.77,7.985,83.5,58.0189,0.5,872.4869,0,6.547,3.071,213,9.29,10.19,7.499509,0.129,50.88,57.91,33.52,35.2
"2017-10-28 13:10:00",312044,0.693,308.3,7.805,83.3,82.76005,0,872.4047,0,5.61,3.08,284,9.32,10.2,10.96694,0.133,50.83,57.91,33.5,35.2
"2017-10-28 13:20:00",312045,0.301,359.7,8.06,82.3,109.2777,0.5,872.2299,0,5.466,3.08,226,9.37,10.2,14.84365,0.136,50.83,57.91,33.5,35.2
"2017-10-28 13:30:00",312046,0.236,226.2,8.08,88.7,115.5308,0,872.4617,0,3.842,3.096,244,9.36,10.2,14.79817,0.128,50.83,57.91,33.5,35.2
"2017-10-28 13:40:00",312047,0.237,120.7,8.28,92.2,107.2814,0,872.5438,0,3.266,3.1,251,9.42,10.2,13.43397,0.125,50.83,57.91,33.5,35.2
"2017-10-28 13:50:00",312048,0.481,134,8.42,93.6,89.81752,0,872.2868,0,5.752,3.075,318,9.4,10.21,11.15674,0.124,50.83,57.91,33.5,35.2
"2017-10-28 14:00:00",312049,0.129,197.3,8.64,94.9,54.27892,0,872.607,0,4.29,3.088,273,9.38,10.21,6.438634,0.117,50.83,57.91,33.5,35.2
"2017-10-28 14:10:00",312050,0.036,62.95,8.72,95.6,36.37521,0,872.6406,0,4.292,3.088,297,9.38,10.2,4.267074,0.116,50.83,57.91,33.5,35.2
"2017-10-28 14:20:00",312051,0.366,101.5,8.73,96.6,55.11858,0,872.3289,0,3.247,3.099,266,9.36,10.2,6.593835,0.119,50.83,57.91,33.5,35.2
"2017-10-28 14:30:00",312052,0.295,178.6,8.53,97,44.42015,0,872.4658,0,3.881,3.093,369,9.44,10.2,5.096942,0.115,50.83,57.91,33.5,35.2
"2017-10-28 14:40:00",312053,0,0,8.7,97.6,43.99957,0.5,872.4617,0,0.688,3.123,285,9.5,10.19,5.206834,0.119,50.83,57.97,33.5,35.21
"2017-10-28 14:50:00",312054,0,0,8.86,96.7,38.74084,0,872.4532,0,-0.275,3.132,231,9.5,10.2,4.744509,0.123,50.83,57.97,33.5,35.21
"2017-10-28 15:00:00",312055,0,0,8.83,96.3,40.54091,0,872.6301,0,5.284,3.078,240,9.46,10.18,4.801353,0.119,50.83,57.97,33.5,35.21
"2017-10-28 15:10:00",312056,0,0,8.83,95.1,31.43051,0,872.7164,0,5.237,3.078,261,9.45,10.18,3.808492,0.121,50.83,57.91,33.5,35.2
"2017-10-28 15:20:00",312057,0,0,8.87,94.5,24.70971,0,872.9692,0,5.416,3.076,255,9.44,10.17,3.168059,0.128,50.83,57.91,33.5,35.2
"2017-10-28 15:30:00",312058,0.097,105.8,8.92,96.2,24.39922,0,872.7333,0,5.697,3.073,234,9.55,10.17,3.092268,0.127,50.77,57.91,33.49,35.2
"2017-10-28 15:40:00",312059,0.18,178.4,8.92,97.9,26.53337,0.5,872.4617,0,5.774,3.072,302,9.59,10.16,3.368905,0.127,50.83,57.91,33.5,35.2
"2017-10-28 15:50:00",312060,0.252,186,9.03,100,18.26011,0,872.3121,0,0.745,3.121,229,9.59,10.16,2.379834,0.131,50.83,57.91,33.5,35.2
"2017-10-28 16:00:00",312061,0.096,225.9,9.19,99.7,13.95252,0,872.213,0,6.654,3.061,448,9.57,10.16,2.122145,0.153,50.83,57.91,33.5,35.2
"2017-10-28 16:10:00",312062,0,0,9.53,97.4,12.99353,0,872.1309,0,5.379,3.074,543,9.55,10.15,2.106987,0.162,50.83,57.86,33.5,35.18
"2017-10-28 16:20:00",312063,0,0,9.31,95.8,11.36246,0.5,872.1057,0,-1.158,3.139,216,9.55,10.16,1.682558,0.148,50.77,57.86,33.49,35.18
"2017-10-28 16:30:00",312064,0,0,9.18,96.8,5.691055,0,872.569,0,-0.857,3.137,233,9.58,10.18,0.973913,0.174,50.77,57.91,33.49,35.2
"2017-10-28 16:40:00",312065,0,0,8.96,98.2,2.935924,0,872.7249,0,-0.962,3.139,198,9.6,10.21,0.4585349,0.162,50.77,57.91,33.49,35.2
"2017-10-28 16:50:00",312066,0.053,201,8.81,99.9,1.190877,0,872.6575,0,-0.531,3.135,207,9.62,10.22,0.3372695,0.273,50.83,57.91,33.5,35.2
"2017-10-28 17:00:00",312067,0.223,244.6,8.91,100,0.08646631,0,872.7733,0,-1.015,3.14,203,9.67,10.24,0.4585349,0.554,50.77,57.91,33.49,35.2
"2017-10-28 17:10:00",312068,0.348,96.4,8.92,100,0,0.5,872.5753,0,5.242,3.077,372,9.67,10.26,0.3372695,0,50.83,57.91,33.5,35.2
"2017-10-28 17:20:00",312069,0.462,92.9,9.22,97.6,0,0,872.5311,0,3.693,3.092,265,9.64,10.26,0.8336998,0,50.83,57.91,33.5,35.2
"2017-10-28 17:30:00",312070,0.528,111.3,9.06,97.4,0,0,872.2531,0,3.388,3.095,290,9.64,10.28,0.4054812,0,50.83,57.91,33.5,35.2
"2017-10-28 17:40:00",312071,0.3,174.6,9.14,98.6,0,0,872.3437,0,0.595,3.122,222,9.69,10.28,0.4547453,0,50.83,57.86,33.5,35.18
"2017-10-28 17:50:00",312072,0.294,242.5,9.18,99.9,0,0,872.2089,0,0.696,3.121,224,9.7,10.28,0.4547453,0,50.83,57.91,33.5,35.2
"2017-10-28 18:00:00",312073,0.138,230.1,9.32,100,0,0,872.0741,0,4.129,3.087,293,9.71,10.28,0.4282185,0,50.88,57.86,33.52,35.18
"2017-10-28 18:10:00",312074,0.345,12.86,9.29,99.8,0,0,871.8108,0,-0.177,3.126,197,9.69,10.28,0.3372695,0,50.88,57.86,33.52,35.18
"2017-10-28 18:20:00",312075,0.642,358.2,9.92,90.8,0,0.5,871.7328,0,1.733,3.107,220,9.68,10.28,1.504449,0,50.88,57.86,33.52,35.18
"2017-10-28 18:30:00",312076,0.204,356.2,10.39,84.2,0,0,871.8593,0,-0.392,3.125,196,9.68,10.28,2.008459,0,50.94,57.86,33.53,35.18
"2017-10-28 18:40:00",312077,0.135,17.11,9.61,91.5,0,0,871.9561,0,-0.674,3.134,192,9.71,10.28,0.1402131,0,50.88,57.91,33.52,35.2
"2017-10-28 18:50:00",312078,0.166,319.5,9.31,96.8,0,0,871.9646,0,-1.028,3.137,182,9.74,10.28,0.2842158,0,50.94,57.91,33.53,35.2
"2017-10-28 19:00:00",312079,0.146,4.111,9.22,98.9,0,0,872.2089,0,-0.828,3.136,182,9.74,10.28,0.01136863,0,50.99,57.91,33.54,35.2
"2017-10-28 19:10:00",312080,0.004,35.68,9.11,100,0,0,872.1688,0,-0.779,3.136,187,9.76,10.28,0.01894772,0,50.99,57.91,33.54,35.2
"2017-10-28 19:20:00",312081,0.132,140.3,9.02,100,0,0,871.8508,0,-0.247,3.131,192,9.76,10.28,0.03789544,0,50.99,57.91,33.54,35.2
"2017-10-28 19:30:00",312082,1.071,53.92,9.13,100,0,0,871.5138,0,-0.499,3.133,186,9.76,10.28,0.4547453,0,50.99,57.97,33.54,35.21
"2017-10-28 19:40:00",312083,1.022,27.31,9.34,99.8,0,0,871.4506,0,6.66,3.06,403,9.76,10.28,0.7162239,0,51.05,57.97,33.56,35.21
"2017-10-28 19:50:00",312084,0.397,306.6,10.02,91,0,0,871.4633,0,5.678,3.068,349,9.76,10.26,1.504449,0,51.05,57.97,33.56,35.21
"2017-10-28 20:00:00",312085,0.226,302.3,9.34,94.4,0,0,871.7033,0,6.461,3.065,388,9.76,10.26,0.0682118,0,51.1,57.97,33.57,35.21
"2017-10-28 20:10:00",312086,0.022,288.6,9.11,99.7,0,0,871.8613,0,6.36,3.066,420,9.76,10.26,0,0,51.1,57.97,33.57,35.21
"2017-10-28 20:20:00",312087,0.039,137,9.04,100,0,0.5,871.9414,0,6.103,3.069,395,9.76,10.27,0,0,51.1,57.97,33.57,35.21
"2017-10-28 20:30:00",312088,0.717,128,9,100,0,0,871.6528,0,4.71,3.082,344,9.76,10.28,0.01136863,0,51.1,58.03,33.57,35.22
"2017-10-28 20:40:00",312089,0.549,97.6,9.16,100,0,0,871.8171,0,5.649,3.073,393,9.76,10.31,0.3031636,0,51.16,58.03,33.58,35.22
"2017-10-28 20:50:00",312090,0.284,164.4,8.99,100,0,0,871.8698,0,5.876,3.071,379,9.75,10.31,0,0,51.21,58.03,33.6,35.22
"2017-10-28 21:00:00",312091,0.229,172.2,9.01,100,0,0.5,871.6886,0,0.615,3.123,198,9.76,10.29,0.06442226,0,51.21,58.03,33.6,35.22
"2017-10-28 21:10:00",312092,0.157,181.9,9.06,100,0,0,871.4907,0,-0.068,3.129,191,9.74,10.29,0.2501099,0,51.21,58.03,33.6,35.22
"2017-10-28 21:20:00",312093,0,0,9.16,100,0,0,871.4443,0,-0.015,3.128,198,9.74,10.32,0.2197936,0,51.21,58.09,33.6,35.24
"2017-10-28 21:30:00",312094,0,0,9.24,100,0,0,871.2947,0,0.299,3.123,204,9.73,10.34,0.2273727,0,51.27,58.03,33.61,35.22
"2017-10-28 21:40:00",312095,0,0,9.5,100,0,0,871.4843,0,2.74,3.099,281,9.72,10.35,0.4547453,0,51.27,58.03,33.61,35.22
"2017-10-28 21:50:00",312096,0,0,9.5,100,0,0.5,871.478,0,1.035,3.116,215,9.72,10.37,0.4547453,0,51.33,58.09,33.62,35.24
"2017-10-28 22:00:00",312097,0,0,9.42,100,0,0,871.3769,0,-0.597,3.133,200,9.72,10.36,0.01136863,0,51.33,58.09,33.62,35.24
"2017-10-28 22:10:00",312098,0.474,24.15,9.56,100,0,0.5,871.1852,0,-2.09,3.146,186,9.72,10.37,0.7162239,0,51.38,58.09,33.64,35.24
"2017-10-28 22:20:00",312099,0.671,90.9,9.51,99.5,0,0,870.8609,0,-1,3.136,197,9.72,10.37,0.4547453,0,51.38,58.09,33.64,35.24
"2017-10-28 22:30:00",312100,0.507,305.4,9.55,97.9,0,0.5,870.804,0,-1.098,3.136,203,9.72,10.37,0.6252748,0,51.44,58.15,33.65,35.25
"2017-10-28 22:40:00",312101,0.52,350,9.76,94.4,0,0,870.507,0,0.026,3.124,207,9.71,10.37,0.9132802,0,51.49,58.15,33.66,35.25
"2017-10-28 22:50:00",312102,0.334,26.81,9.72,94,0,0,870.4396,0,0.274,3.123,211,9.7,10.37,0.6176957,0,51.6,58.21,33.69,35.26
"2017-10-28 23:00:00",312103,0.09,91.3,9.56,96.9,0,0,870.2627,0,3.679,3.09,365,9.7,10.37,0.2614786,0,51.66,58.21,33.7,35.26
"2017-10-28 23:10:00",312104,0.117,180.2,9.41,99.3,0,0,870.1868,0,-0.292,3.13,203,9.7,10.37,0,0,51.71,58.21,33.72,35.26
"2017-10-28 23:20:00",312105,0,0,9.3,100,0,0.5,870.1658,0,0.624,3.121,242,9.7,10.37,0,0,51.82,58.26,33.75,35.28
"2017-10-28 23:30:00",312106,0,0,9.38,100,0,0,870.1805,0,-0.365,3.13,202,9.69,10.36,0.2387413,0,51.82,58.26,33.75,35.28
"2017-10-28 23:40:00",312107,0,0,9.49,100,0,0,870.1911,0,-0.568,3.132,203,9.69,10.35,0.2349517,0,51.88,58.32,33.76,35.29
"2017-10-28 23:50:00",312108,0.041,60.12,9.48,100,0,0,870.1658,0,3.123,3.095,262,9.69,10.34,0.2955845,0,51.94,58.38,33.77,35.31
